contact:dominique.lefevre@mio.osupytheas.fr, maurice.libes@osupytheas.fr, didier.mallarino@osupytheas.fr
Project:EMSO http://www.emso-fr.org/EMSO-France
Depth: 2436.0 m
Title:EMSO Ligure Ouest : Data MII capteur MICROCAT
DateTime_Computer,Latitude,Longitude,Temperature,Conductivity,Pressure,DateTime_Instrument
DateTime_Computer,Latitude,Longitude,degC,S m-1,dbar,DateTime_Instrument
2019-08-04T00:02:44Z,42.805,6.029,13.3015,4.59986,2469.914,2019-8-04T02:03:04Z
2019-08-04T00:05:48Z,42.805,6.029,13.3000,4.59991,2469.9,2019-8-04T02:06:07Z
2019-08-04T00:08:51Z,42.805,6.029,13.2986,4.59995,2469.9,2019-8-04T02:09:11Z
2019-08-04T00:11:54Z,42.805,6.029,13.2998,4.59999,2469.923,2019-8-04T02:12:14Z
2019-08-04T00:14:57Z,42.805,6.029,13.2996,4.60008,2469.914,2019-8-04T02:15:17Z
2019-08-04T00:18:01Z,42.805,6.029,13.3005,4.59999,2469.9,2019-8-04T02:18:21Z
2019-08-04T00:21:04Z,42.805,6.029,13.3006,4.59985,2469.89,2019-8-04T02:21:24Z
2019-08-04T00:24:07Z,42.805,6.029,13.3024,4.59995,2469.89,2019-8-04T02:24:27Z
2019-08-04T00:27:11Z,42.805,6.029,13.3009,4.60008,2469.89,2019-8-04T02:27:30Z
2019-08-04T00:30:14Z,42.805,6.029,13.2993,4.59716,2469.89,2019-8-04T02:30:34Z
2019-08-04T00:33:17Z,42.805,6.029,13.2998,4.59986,2469.89,2019-8-04T02:33:37Z
2019-08-04T00:36:20Z,42.805,6.029,13.2995,4.59998,2469.867,2019-8-04T02:36:40Z
2019-08-04T00:39:24Z,42.805,6.029,13.2983,4.60016,2469.89,2019-8-04T02:39:44Z
2019-08-04T00:42:27Z,42.805,6.029,13.2995,4.59990,2469.9,2019-8-04T02:42:47Z
2019-08-04T00:45:30Z,42.805,6.029,13.2992,4.59984,2469.914,2019-8-04T02:45:50Z
2019-08-04T00:48:34Z,42.805,6.029,13.2993,4.59993,2469.876,2019-8-04T02:48:53Z
2019-08-04T00:51:37Z,42.805,6.029,13.2991,4.59997,2469.853,2019-8-04T02:51:57Z
2019-08-04T00:54:40Z,42.805,6.029,13.2991,4.59985,2469.867,2019-8-04T02:55:00Z
2019-08-04T00:57:43Z,42.805,6.029,13.3006,4.59983,2469.876,2019-8-04T02:58:03Z
2019-08-04T01:00:46Z,42.805,6.029,13.2998,4.59978,2469.867,2019-8-04T03:01:06Z
2019-08-04T01:03:50Z,42.805,6.029,13.2989,4.59991,2469.853,2019-8-04T03:04:10Z
2019-08-04T01:06:53Z,42.805,6.029,13.2983,4.59996,2469.867,2019-8-04T03:07:13Z
2019-08-04T01:09:56Z,42.805,6.029,13.3021,4.59982,2469.853,2019-8-04T03:10:16Z
2019-08-04T01:13:00Z,42.805,6.029,13.3026,4.59986,2469.83,2019-8-04T03:13:20Z
2019-08-04T01:16:03Z,42.805,6.029,13.2997,4.59991,2469.853,2019-8-04T03:16:23Z
2019-08-04T01:19:06Z,42.805,6.029,13.3020,4.59988,2469.853,2019-8-04T03:19:26Z
2019-08-04T01:22:09Z,42.805,6.029,13.3008,4.60021,2469.83,2019-8-04T03:22:29Z
2019-08-04T01:25:13Z,42.805,6.029,13.3012,4.59995,2469.844,2019-8-04T03:25:33Z
2019-08-04T01:28:16Z,42.805,6.029,13.2992,4.59995,2469.844,2019-8-04T03:28:36Z
2019-08-04T01:31:19Z,42.805,6.029,13.3020,4.59997,2469.821,2019-8-04T03:31:39Z
2019-08-04T01:34:23Z,42.805,6.029,13.2990,4.60013,2469.83,2019-8-04T03:34:42Z
2019-08-04T01:37:26Z,42.805,6.029,13.3040,4.59998,2469.844,2019-8-04T03:37:46Z
2019-08-04T01:40:30Z,42.805,6.029,13.3011,4.59997,2469.844,2019-8-04T03:40:50Z
2019-08-04T01:43:33Z,42.805,6.029,13.3021,4.59986,2469.797,2019-8-04T03:43:53Z
2019-08-04T01:46:36Z,42.805,6.029,13.3005,4.59973,2469.844,2019-8-04T03:46:56Z
2019-08-04T01:49:39Z,42.805,6.029,13.3000,4.59997,2469.806,2019-8-04T03:49:59Z
2019-08-04T01:52:43Z,42.805,6.029,13.2993,4.59982,2469.844,2019-8-04T03:53:03Z
2019-08-04T01:55:46Z,42.805,6.029,13.3010,4.60004,2469.83,2019-8-04T03:56:06Z
2019-08-04T01:58:49Z,42.805,6.029,13.3024,4.59980,2469.821,2019-8-04T03:59:09Z
2019-08-04T02:01:53Z,42.805,6.029,13.3009,4.59986,2469.83,2019-8-04T04:02:12Z
2019-08-04T02:04:56Z,42.805,6.029,13.3006,4.59985,2469.844,2019-8-04T04:05:16Z
2019-08-04T02:07:59Z,42.805,6.029,13.2998,4.59992,2469.806,2019-8-04T04:08:19Z
2019-08-04T02:11:02Z,42.805,6.029,13.3026,4.59981,2469.83,2019-8-04T04:11:22Z
2019-08-04T02:14:06Z,42.805,6.029,13.3000,4.59979,2469.844,2019-8-04T04:14:25Z
2019-08-04T02:17:09Z,42.805,6.029,13.2991,4.59980,2469.821,2019-8-04T04:17:29Z
2019-08-04T02:20:12Z,42.805,6.029,13.3025,4.59986,2469.821,2019-8-04T04:20:32Z
2019-08-04T02:23:15Z,42.805,6.029,13.2995,4.60004,2469.783,2019-8-04T04:23:35Z
2019-08-04T02:26:19Z,42.805,6.029,13.2991,4.59986,2469.821,2019-8-04T04:26:39Z
2019-08-04T02:29:22Z,42.805,6.029,13.2993,4.60001,2469.783,2019-8-04T04:29:42Z
2019-08-04T02:32:25Z,42.805,6.029,13.2986,4.59988,2469.797,2019-8-04T04:32:45Z
2019-08-04T02:35:28Z,42.805,6.029,13.3000,4.59989,2469.821,2019-8-04T04:35:48Z
2019-08-04T02:38:32Z,42.805,6.029,13.2990,4.60001,2469.773,2019-8-04T04:38:52Z
2019-08-04T02:41:35Z,42.805,6.029,13.2993,4.59999,2469.797,2019-8-04T04:41:55Z
2019-08-04T02:44:38Z,42.805,6.029,13.2996,4.59981,2469.821,2019-8-04T04:44:58Z
2019-08-04T02:47:42Z,42.805,6.029,13.2993,4.60001,2469.797,2019-8-04T04:48:01Z
2019-08-04T02:50:45Z,42.805,6.029,13.2998,4.59991,2469.783,2019-8-04T04:51:05Z
2019-08-04T02:53:48Z,42.805,6.029,13.3011,4.59989,2469.797,2019-8-04T04:54:08Z
2019-08-04T02:56:51Z,42.805,6.029,13.2991,4.60007,2469.797,2019-8-04T04:57:11Z
2019-08-04T02:59:55Z,42.805,6.029,13.2993,4.59988,2469.75,2019-8-04T05:00:14Z
2019-08-04T03:02:58Z,42.805,6.029,13.2986,4.59987,2469.783,2019-8-04T05:03:18Z
2019-08-04T03:06:01Z,42.805,6.029,13.2991,4.59990,2469.797,2019-8-04T05:06:21Z
2019-08-04T03:09:04Z,42.805,6.029,13.2996,4.59983,2469.76,2019-8-04T05:09:24Z
2019-08-04T03:12:08Z,42.805,6.029,13.2987,4.59973,2469.76,2019-8-04T05:12:28Z
2019-08-04T03:15:11Z,42.805,6.029,13.3002,4.59975,2469.76,2019-8-04T05:15:31Z
2019-08-04T03:18:14Z,42.805,6.029,13.2990,4.59983,2469.783,2019-8-04T05:18:34Z
2019-08-04T03:33:09Z,42.805,6.029,13.2991,4.59978,2469.76,2019-8-04T05:33:28Z
2019-08-04T03:36:12Z,42.805,6.029,13.3000,4.59986,2469.76,2019-8-04T05:36:32Z
2019-08-04T03:39:15Z,42.805,6.029,13.2993,4.59980,2469.783,2019-8-04T05:39:35Z
2019-08-04T03:42:19Z,42.805,6.029,13.2979,4.59988,2469.76,2019-8-04T05:42:38Z
2019-08-04T03:45:22Z,42.805,6.029,13.2996,4.59981,2469.76,2019-8-04T05:45:42Z
2019-08-04T03:48:25Z,42.805,6.029,13.2990,4.59986,2469.737,2019-8-04T05:48:45Z
2019-08-04T03:51:29Z,42.805,6.029,13.2981,4.59991,2469.75,2019-8-04T05:51:48Z
2019-08-04T03:54:32Z,42.805,6.029,13.2998,4.59982,2469.797,2019-8-04T05:54:52Z
2019-08-04T03:57:35Z,42.805,6.029,13.3002,4.59978,2469.773,2019-8-04T05:57:55Z
2019-08-04T04:00:39Z,42.805,6.029,13.2982,4.59983,2469.76,2019-8-04T06:00:59Z
2019-08-04T04:03:42Z,42.805,6.029,13.2984,4.59982,2469.737,2019-8-04T06:04:02Z
2019-08-04T04:06:45Z,42.805,6.029,13.2996,4.59988,2469.76,2019-8-04T06:07:05Z
2019-08-04T04:09:49Z,42.805,6.029,13.2998,4.59992,2469.773,2019-8-04T06:10:08Z
2019-08-04T04:12:52Z,42.805,6.029,13.2998,4.59985,2469.76,2019-8-04T06:13:12Z
2019-08-04T04:15:55Z,42.805,6.029,13.3000,4.59978,2469.727,2019-8-04T06:16:15Z
2019-08-04T04:18:59Z,42.805,6.029,13.2987,4.59978,2469.75,2019-8-04T06:19:19Z
2019-08-04T04:22:02Z,42.805,6.029,13.2981,4.59978,2469.773,2019-8-04T06:22:22Z
2019-08-04T04:25:05Z,42.805,6.029,13.2990,4.59986,2469.737,2019-8-04T06:25:25Z
2019-08-04T04:28:09Z,42.805,6.029,13.2994,4.59982,2469.727,2019-8-04T06:28:28Z
2019-08-04T04:38:08Z,42.805,6.029,13.2983,4.59980,2469.737,2019-8-04T06:38:28Z
2019-08-04T04:41:11Z,42.805,6.029,13.3010,4.59988,2469.737,2019-8-04T06:41:31Z
2019-08-04T04:44:14Z,42.805,6.029,13.2994,4.59987,2469.76,2019-8-04T06:44:34Z
2019-08-04T04:47:18Z,42.805,6.029,13.3013,4.59982,2469.737,2019-8-04T06:47:38Z
2019-08-04T04:50:21Z,42.805,6.029,13.2982,4.59978,2469.737,2019-8-04T06:50:41Z
2019-08-04T04:53:24Z,42.805,6.029,13.2994,4.59979,2469.76,2019-8-04T06:53:44Z
2019-08-04T04:56:28Z,42.805,6.029,13.3002,4.59986,2469.727,2019-8-04T06:56:47Z
2019-08-04T04:59:31Z,42.805,6.029,13.2995,4.59981,2469.773,2019-8-04T06:59:51Z
2019-08-04T05:02:34Z,42.805,6.029,13.2982,4.59993,2469.75,2019-8-04T07:02:54Z
2019-08-04T05:05:37Z,42.805,6.029,13.2986,4.59983,2469.773,2019-8-04T07:05:57Z
2019-08-04T05:08:41Z,42.805,6.029,13.2984,4.59976,2469.75,2019-8-04T07:09:01Z
2019-08-04T05:11:44Z,42.805,6.029,13.2982,4.59982,2469.75,2019-8-04T07:12:04Z
2019-08-04T05:14:48Z,42.805,6.029,13.2982,4.59984,2469.727,2019-8-04T07:15:07Z
2019-08-04T05:17:51Z,42.805,6.029,13.2979,4.59976,2469.76,2019-8-04T07:18:11Z
2019-08-04T05:20:54Z,42.805,6.029,13.2985,4.59978,2469.737,2019-8-04T07:21:14Z
2019-08-04T05:23:57Z,42.805,6.029,13.2983,4.59980,2469.783,2019-8-04T07:24:17Z
2019-08-04T05:27:01Z,42.805,6.029,13.2987,4.59980,2469.727,2019-8-04T07:27:20Z
2019-08-04T05:30:04Z,42.805,6.029,13.2981,4.59978,2469.773,2019-8-04T07:30:24Z
2019-08-04T05:33:07Z,42.805,6.029,13.2993,4.59975,2469.773,2019-8-04T07:33:27Z
2019-08-04T05:36:11Z,42.805,6.029,13.2998,4.60001,2469.76,2019-8-04T07:36:31Z
2019-08-04T05:39:14Z,42.805,6.029,13.3002,4.59980,2469.783,2019-8-04T07:39:34Z
2019-08-04T05:42:17Z,42.805,6.029,13.2991,4.59981,2469.773,2019-8-04T07:42:37Z
2019-08-04T05:45:21Z,42.805,6.029,13.2993,4.59985,2469.76,2019-8-04T07:45:40Z
2019-08-04T05:48:24Z,42.805,6.029,13.2984,4.59977,2469.783,2019-8-04T07:48:44Z
2019-08-04T05:51:27Z,42.805,6.029,13.2990,4.59978,2469.737,2019-8-04T07:51:47Z
2019-08-04T05:54:30Z,42.805,6.029,13.2981,4.59997,2469.783,2019-8-04T07:54:50Z
2019-08-04T05:57:34Z,42.805,6.029,13.2993,4.59992,2469.76,2019-8-04T07:57:54Z
2019-08-04T06:00:37Z,42.805,6.029,13.2982,4.59972,2469.797,2019-8-04T08:00:57Z
2019-08-04T06:03:41Z,42.805,6.029,13.2996,4.59851,2469.797,2019-8-04T08:04:00Z
2019-08-04T06:06:44Z,42.805,6.029,13.2981,4.59980,2469.821,2019-8-04T08:07:04Z
2019-08-04T06:09:47Z,42.805,6.029,13.2976,4.59976,2469.793,2019-8-04T08:10:07Z
2019-08-04T06:12:50Z,42.805,6.029,13.2979,4.59988,2469.783,2019-8-04T08:13:10Z
2019-08-04T06:15:54Z,42.805,6.029,13.2986,4.59984,2469.806,2019-8-04T08:16:13Z
2019-08-04T06:18:57Z,42.805,6.029,13.2976,4.59988,2469.783,2019-8-04T08:19:17Z
2019-08-04T06:22:00Z,42.805,6.029,13.2978,4.59970,2469.806,2019-8-04T08:22:20Z
2019-08-04T06:25:04Z,42.805,6.029,13.2982,4.59978,2469.797,2019-8-04T08:25:24Z
2019-08-04T06:28:07Z,42.805,6.029,13.2983,4.59979,2469.806,2019-8-04T08:28:27Z
2019-08-04T06:31:10Z,42.805,6.029,13.2991,4.59980,2469.821,2019-8-04T08:31:30Z
2019-08-04T06:34:14Z,42.805,6.029,13.2990,4.59981,2469.821,2019-8-04T08:34:33Z
2019-08-04T06:37:17Z,42.805,6.029,13.2996,4.59981,2469.821,2019-8-04T08:37:37Z
2019-08-04T06:40:20Z,42.805,6.029,13.2982,4.60016,2469.83,2019-8-04T08:40:40Z
2019-08-04T06:43:23Z,42.805,6.029,13.2982,4.59985,2469.844,2019-8-04T08:43:43Z
2019-08-04T06:46:27Z,42.805,6.029,13.2968,4.59972,2469.821,2019-8-04T08:46:47Z
2019-08-04T06:49:30Z,42.805,6.029,13.2977,4.59991,2469.821,2019-8-04T08:49:50Z
2019-08-04T06:52:33Z,42.805,6.029,13.2991,4.59993,2469.821,2019-8-04T08:52:53Z
2019-08-04T06:55:37Z,42.805,6.029,13.2983,4.59989,2469.83,2019-8-04T08:55:56Z
2019-08-04T06:58:40Z,42.805,6.029,13.2986,4.59989,2469.83,2019-8-04T08:59:00Z
2019-08-04T07:01:43Z,42.805,6.029,13.2971,4.60017,2469.83,2019-8-04T09:02:03Z
2019-08-04T07:04:46Z,42.805,6.029,13.2984,4.59993,2469.844,2019-8-04T09:05:06Z
2019-08-04T07:07:50Z,42.805,6.029,13.2982,4.59988,2469.844,2019-8-04T09:08:09Z
2019-08-04T07:10:53Z,42.805,6.029,13.3004,4.59980,2469.867,2019-8-04T09:11:13Z
2019-08-04T07:13:56Z,42.805,6.029,13.2994,4.59982,2469.83,2019-8-04T09:14:16Z
2019-08-04T07:16:59Z,42.805,6.029,13.2984,4.59994,2469.853,2019-8-04T09:17:19Z
2019-08-04T07:20:03Z,42.805,6.029,13.2986,4.59986,2469.83,2019-8-04T09:20:23Z
2019-08-04T07:23:06Z,42.805,6.029,13.2976,4.59978,2469.867,2019-8-04T09:23:26Z
2019-08-04T07:26:09Z,42.805,6.029,13.2989,4.59979,2469.867,2019-8-04T09:26:29Z
2019-08-04T07:29:12Z,42.805,6.029,13.2987,4.59980,2469.89,2019-8-04T09:29:32Z
2019-08-04T07:32:16Z,42.805,6.029,13.2988,4.59991,2469.89,2019-8-04T09:32:36Z
2019-08-04T07:35:19Z,42.805,6.029,13.2995,4.59990,2469.867,2019-8-04T09:35:39Z
2019-08-04T07:38:22Z,42.805,6.029,13.2986,4.59989,2469.876,2019-8-04T09:38:42Z
2019-08-04T07:41:26Z,42.805,6.029,13.2977,4.59981,2469.853,2019-8-04T09:41:45Z
2019-08-04T07:44:29Z,42.805,6.029,13.2991,4.59984,2469.876,2019-8-04T09:44:49Z
2019-08-04T07:47:32Z,42.805,6.029,13.2998,4.59983,2469.876,2019-8-04T09:47:52Z
2019-08-04T07:50:35Z,42.805,6.029,13.2990,4.59986,2469.914,2019-8-04T09:50:55Z
2019-08-04T07:53:39Z,42.805,6.029,13.3007,4.59988,2469.853,2019-8-04T09:53:59Z
2019-08-04T07:56:42Z,42.805,6.029,13.2978,4.59995,2469.876,2019-8-04T09:57:02Z
2019-08-04T07:59:45Z,42.805,6.029,13.2974,4.59998,2469.9,2019-8-04T10:00:05Z
2019-08-04T08:02:49Z,42.805,6.029,13.2979,4.59985,2469.923,2019-8-04T10:03:09Z
2019-08-04T08:05:52Z,42.805,6.029,13.2998,4.59985,2469.9,2019-8-04T10:06:12Z
2019-08-04T08:08:55Z,42.805,6.029,13.2998,4.59978,2469.89,2019-8-04T10:09:15Z
2019-08-04T08:11:59Z,42.805,6.029,13.2991,4.59994,2469.914,2019-8-04T10:12:19Z
2019-08-04T08:15:02Z,42.805,6.029,13.2992,4.59986,2469.89,2019-8-04T10:15:22Z
2019-08-04T08:18:05Z,42.805,6.029,13.3007,4.59983,2469.876,2019-8-04T10:18:25Z
2019-08-04T08:21:08Z,42.805,6.029,13.2991,4.59997,2469.9,2019-8-04T10:21:28Z
2019-08-04T08:24:12Z,42.805,6.029,13.2982,4.59976,2469.9,2019-8-04T10:24:32Z
2019-08-04T08:27:15Z,42.805,6.029,13.2981,4.59991,2469.9,2019-8-04T10:27:35Z
2019-08-04T08:30:18Z,42.805,6.029,13.2982,4.59999,2469.923,2019-8-04T10:30:38Z
2019-08-04T08:33:22Z,42.805,6.029,13.3010,4.59986,2469.9,2019-8-04T10:33:42Z
2019-08-04T08:36:25Z,42.805,6.029,13.2977,4.59983,2469.9,2019-8-04T10:36:45Z
2019-08-04T08:39:28Z,42.805,6.029,13.2977,4.59982,2469.9,2019-8-04T10:39:48Z
2019-08-04T08:42:32Z,42.805,6.029,13.2970,4.59991,2469.937,2019-8-04T10:42:51Z
2019-08-04T08:45:35Z,42.805,6.029,13.2976,4.59999,2469.923,2019-8-04T10:45:55Z
2019-08-04T08:48:38Z,42.805,6.029,13.2989,4.59984,2469.914,2019-8-04T10:48:58Z
2019-08-04T08:51:41Z,42.805,6.029,13.2991,4.59988,2469.937,2019-8-04T10:52:01Z
2019-08-04T08:54:45Z,42.805,6.029,13.2996,4.59992,2469.947,2019-8-04T10:55:05Z
2019-08-04T08:57:48Z,42.805,6.029,13.2992,4.59971,2469.923,2019-8-04T10:58:08Z
2019-08-04T09:00:51Z,42.805,6.029,13.2976,4.59981,2469.96,2019-8-04T11:01:11Z
2019-08-04T09:03:55Z,42.805,6.029,13.2974,4.60003,2469.9,2019-8-04T11:04:15Z
2019-08-04T09:06:58Z,42.805,6.029,13.2987,4.59974,2469.9,2019-8-04T11:07:18Z
2019-08-04T09:10:01Z,42.805,6.029,13.2992,4.59992,2469.937,2019-8-04T11:10:21Z
2019-08-04T09:13:05Z,42.805,6.029,13.2993,4.59989,2469.9,2019-8-04T11:13:24Z
2019-08-04T09:16:08Z,42.805,6.029,13.2986,4.60014,2469.923,2019-8-04T11:16:28Z
2019-08-04T09:19:11Z,42.805,6.029,13.2991,4.59997,2469.9,2019-8-04T11:19:31Z
2019-08-04T09:22:15Z,42.805,6.029,13.2998,4.60017,2469.923,2019-8-04T11:22:34Z
2019-08-04T09:25:18Z,42.805,6.029,13.2976,4.60003,2469.937,2019-8-04T11:25:38Z
2019-08-04T09:28:21Z,42.805,6.029,13.2982,4.60028,2469.937,2019-8-04T11:28:41Z
2019-08-04T09:31:24Z,42.805,6.029,13.3011,4.60054,2469.937,2019-8-04T11:31:44Z
2019-08-04T09:34:27Z,42.805,6.029,13.3010,4.60021,2469.914,2019-8-04T11:34:47Z
2019-08-04T09:37:31Z,42.805,6.029,13.3041,4.60024,2469.9,2019-8-04T11:37:50Z
2019-08-04T09:40:34Z,42.805,6.029,13.3006,4.60014,2469.914,2019-8-04T11:40:54Z
2019-08-04T09:43:37Z,42.805,6.029,13.3017,4.60015,2469.96,2019-8-04T11:43:57Z
2019-08-04T09:46:40Z,42.805,6.029,13.2999,4.60011,2469.89,2019-8-04T11:47:00Z
2019-08-04T09:49:43Z,42.805,6.029,13.3008,4.60000,2469.96,2019-8-04T11:50:03Z
2019-08-04T09:52:47Z,42.805,6.029,13.2991,4.60005,2469.937,2019-8-04T11:53:06Z
2019-08-04T09:55:50Z,42.805,6.029,13.2997,4.59971,2469.947,2019-8-04T11:56:10Z
2019-08-04T09:58:53Z,42.805,6.029,13.2983,4.60001,2469.9,2019-8-04T11:59:13Z
2019-08-04T10:01:56Z,42.805,6.029,13.3005,4.59977,2469.947,2019-8-04T12:02:16Z
2019-08-04T10:04:59Z,42.805,6.029,13.2990,4.59988,2469.9,2019-8-04T12:05:19Z
2019-08-04T10:08:03Z,42.805,6.029,13.2993,4.60016,2469.923,2019-8-04T12:08:22Z
2019-08-04T10:11:06Z,42.805,6.029,13.2997,4.59992,2469.923,2019-8-04T12:11:26Z
2019-08-04T10:14:09Z,42.805,6.029,13.2990,4.60014,2469.9,2019-8-04T12:14:29Z
2019-08-04T10:17:12Z,42.805,6.029,13.3002,4.60009,2469.937,2019-8-04T12:17:32Z
2019-08-04T10:20:15Z,42.805,6.029,13.3010,4.60002,2469.89,2019-8-04T12:20:35Z
2019-08-04T10:23:18Z,42.805,6.029,13.3019,4.59996,2469.914,2019-8-04T12:23:38Z
2019-08-04T10:26:22Z,42.805,6.029,13.3000,4.60003,2469.876,2019-8-04T12:26:42Z
2019-08-04T10:29:25Z,42.805,6.029,13.2974,4.59984,2469.937,2019-8-04T12:29:45Z
2019-08-04T10:32:28Z,42.805,6.029,13.2993,4.60006,2469.914,2019-8-04T12:32:48Z
2019-08-04T10:35:31Z,42.805,6.029,13.2990,4.59998,2469.923,2019-8-04T12:35:51Z
2019-08-04T10:38:35Z,42.805,6.029,13.2989,4.60016,2469.937,2019-8-04T12:38:54Z
2019-08-04T10:41:38Z,42.805,6.029,13.3015,4.59996,2469.914,2019-8-04T12:41:58Z
2019-08-04T10:44:41Z,42.805,6.029,13.2994,4.60023,2469.89,2019-8-04T12:45:01Z
2019-08-04T10:47:44Z,42.805,6.029,13.2987,4.60049,2469.9,2019-8-04T12:48:04Z
2019-08-04T10:50:47Z,42.805,6.029,13.2990,4.59983,2469.876,2019-8-04T12:51:07Z
2019-08-04T10:53:50Z,42.805,6.029,13.2994,4.60003,2469.867,2019-8-04T12:54:10Z
2019-08-04T10:56:54Z,42.805,6.029,13.2998,4.60006,2469.876,2019-8-04T12:57:14Z
2019-08-04T10:59:57Z,42.805,6.029,13.3006,4.60036,2469.89,2019-8-04T13:00:17Z
2019-08-04T11:03:00Z,42.805,6.029,13.2982,4.60021,2469.876,2019-8-04T13:03:20Z
2019-08-04T11:06:03Z,42.805,6.029,13.2996,4.59996,2469.876,2019-8-04T13:06:23Z
2019-08-04T11:09:07Z,42.805,6.029,13.3009,4.60040,2469.853,2019-8-04T13:09:26Z
2019-08-04T11:12:10Z,42.805,6.029,13.3010,4.60043,2469.9,2019-8-04T13:12:30Z
2019-08-04T11:15:13Z,42.805,6.029,13.2986,4.60059,2469.914,2019-8-04T13:15:33Z
2019-08-04T11:18:16Z,42.805,6.029,13.3019,4.60032,2469.914,2019-8-04T13:18:36Z
2019-08-04T11:21:19Z,42.805,6.029,13.3001,4.59998,2469.876,2019-8-04T13:21:39Z
2019-08-04T11:24:23Z,42.805,6.029,13.3007,4.60029,2469.9,2019-8-04T13:24:42Z
2019-08-04T11:27:26Z,42.805,6.029,13.2979,4.60020,2469.867,2019-8-04T13:27:46Z
2019-08-04T11:30:29Z,42.805,6.029,13.2982,4.60003,2469.853,2019-8-04T13:30:49Z
2019-08-04T11:33:32Z,42.805,6.029,13.2991,4.60024,2469.89,2019-8-04T13:33:52Z
2019-08-04T11:36:35Z,42.805,6.029,13.3004,4.60039,2469.853,2019-8-04T13:36:55Z
2019-08-04T11:39:39Z,42.805,6.029,13.3009,4.60031,2469.89,2019-8-04T13:39:58Z
2019-08-04T11:42:42Z,42.805,6.029,13.3013,4.60034,2469.867,2019-8-04T13:43:02Z
2019-08-04T11:45:45Z,42.805,6.029,13.3024,4.60028,2469.89,2019-8-04T13:46:05Z
2019-08-04T11:48:48Z,42.805,6.029,13.2986,4.59982,2469.853,2019-8-04T13:49:08Z
2019-08-04T11:51:52Z,42.805,6.029,13.2991,4.60039,2469.83,2019-8-04T13:52:12Z
2019-08-04T11:54:55Z,42.805,6.029,13.3009,4.60002,2469.853,2019-8-04T13:55:15Z
2019-08-04T11:57:58Z,42.805,6.029,13.2999,4.60004,2469.89,2019-8-04T13:58:18Z
2019-08-04T12:01:01Z,42.805,6.029,13.3006,4.60000,2469.83,2019-8-04T14:01:21Z
2019-08-04T12:04:05Z,42.805,6.029,13.3004,4.59996,2469.83,2019-8-04T14:04:24Z
2019-08-04T12:07:08Z,42.805,6.029,13.2998,4.59984,2469.83,2019-8-04T14:07:28Z
2019-08-04T12:10:11Z,42.805,6.029,13.2996,4.59976,2469.867,2019-8-04T14:10:31Z
2019-08-04T12:13:14Z,42.805,6.029,13.2998,4.59997,2469.867,2019-8-04T14:13:34Z
2019-08-04T12:16:17Z,42.805,6.029,13.2969,4.59982,2469.806,2019-8-04T14:16:37Z
2019-08-04T12:19:21Z,42.805,6.029,13.2981,4.59994,2469.83,2019-8-04T14:19:41Z
2019-08-04T12:22:24Z,42.805,6.029,13.2980,4.59983,2469.867,2019-8-04T14:22:44Z
2019-08-04T12:25:27Z,42.805,6.029,13.2978,4.60021,2469.83,2019-8-04T14:25:47Z
2019-08-04T12:28:30Z,42.805,6.029,13.2990,4.60005,2469.806,2019-8-04T14:28:50Z
2019-08-04T12:31:34Z,42.805,6.029,13.3007,4.59978,2469.844,2019-8-04T14:31:53Z
2019-08-04T12:34:37Z,42.805,6.029,13.2997,4.59995,2469.806,2019-8-04T14:34:57Z
2019-08-04T12:37:40Z,42.805,6.029,13.2976,4.59998,2469.867,2019-8-04T14:38:00Z
2019-08-04T12:40:44Z,42.805,6.029,13.2968,4.59994,2469.83,2019-8-04T14:41:03Z
2019-08-04T12:43:47Z,42.805,6.029,13.2989,4.60008,2469.83,2019-8-04T14:44:07Z
2019-08-04T12:46:50Z,42.805,6.029,13.2972,4.59970,2469.783,2019-8-04T14:47:10Z
2019-08-04T12:49:53Z,42.805,6.029,13.2988,4.59994,2469.806,2019-8-04T14:50:13Z
2019-08-04T12:52:56Z,42.805,6.029,13.2989,4.59988,2469.806,2019-8-04T14:53:16Z
2019-08-04T12:56:00Z,42.805,6.029,13.2983,4.59970,2469.806,2019-8-04T14:56:19Z
2019-08-04T12:59:03Z,42.805,6.029,13.2990,4.59983,2469.844,2019-8-04T14:59:23Z
2019-08-04T13:02:06Z,42.805,6.029,13.2975,4.59983,2469.821,2019-8-04T15:02:26Z
2019-08-04T13:05:09Z,42.805,6.029,13.2976,4.59998,2469.821,2019-8-04T15:05:29Z
2019-08-04T13:08:12Z,42.805,6.029,13.2983,4.59986,2469.821,2019-8-04T15:08:32Z
2019-08-04T13:11:16Z,42.805,6.029,13.2983,4.60003,2469.806,2019-8-04T15:11:35Z
2019-08-04T13:14:19Z,42.805,6.029,13.2997,4.59993,2469.76,2019-8-04T15:14:39Z
2019-08-04T13:17:22Z,42.805,6.029,13.3000,4.59987,2469.76,2019-8-04T15:17:42Z
2019-08-04T13:20:25Z,42.805,6.029,13.3002,4.60001,2469.783,2019-8-04T15:20:45Z
2019-08-04T13:23:28Z,42.805,6.029,13.2996,4.59986,2469.821,2019-8-04T15:23:48Z
2019-08-04T13:26:32Z,42.805,6.029,13.2985,4.59990,2469.797,2019-8-04T15:26:52Z
2019-08-04T13:29:35Z,42.805,6.029,13.2990,4.60015,2469.773,2019-8-04T15:29:55Z
2019-08-04T13:32:38Z,42.805,6.029,13.3009,4.59995,2469.783,2019-8-04T15:32:58Z
2019-08-04T13:35:41Z,42.805,6.029,13.2979,4.59999,2469.76,2019-8-04T15:36:01Z
2019-08-04T13:38:45Z,42.805,6.029,13.2971,4.59992,2469.797,2019-8-04T15:39:04Z
2019-08-04T13:41:48Z,42.805,6.029,13.2983,4.59981,2469.773,2019-8-04T15:42:08Z
2019-08-04T13:44:51Z,42.805,6.029,13.2980,4.59964,2469.821,2019-8-04T15:45:11Z
2019-08-04T13:47:54Z,42.805,6.029,13.2982,4.59976,2469.75,2019-8-04T15:48:14Z
2019-08-04T13:50:57Z,42.805,6.029,13.2982,4.59972,2469.783,2019-8-04T15:51:17Z
2019-08-04T13:54:01Z,42.805,6.029,13.2974,4.59991,2469.76,2019-8-04T15:54:21Z
2019-08-04T13:57:04Z,42.805,6.029,13.2989,4.59992,2469.773,2019-8-04T15:57:24Z
2019-08-04T14:00:07Z,42.805,6.029,13.2971,4.59983,2469.783,2019-8-04T16:00:27Z
2019-08-04T14:03:10Z,42.805,6.029,13.2986,4.59987,2469.773,2019-8-04T16:03:30Z
2019-08-04T14:06:14Z,42.805,6.029,13.2999,4.59975,2469.783,2019-8-04T16:06:33Z
2019-08-04T14:09:17Z,42.805,6.029,13.3009,4.59983,2469.76,2019-8-04T16:09:37Z
2019-08-04T14:12:20Z,42.805,6.029,13.2982,4.59994,2469.773,2019-8-04T16:12:40Z
2019-08-04T14:15:23Z,42.805,6.029,13.2998,4.59976,2469.783,2019-8-04T16:15:43Z
2019-08-04T14:18:27Z,42.805,6.029,13.2996,4.60005,2469.737,2019-8-04T16:18:46Z
2019-08-04T14:21:30Z,42.805,6.029,13.2984,4.59989,2469.75,2019-8-04T16:21:50Z
2019-08-04T14:24:33Z,42.805,6.029,13.2985,4.59979,2469.75,2019-8-04T16:24:53Z
2019-08-04T14:27:36Z,42.805,6.029,13.2977,4.59990,2469.737,2019-8-04T16:27:56Z
2019-08-04T14:30:40Z,42.805,6.029,13.2986,4.59981,2469.713,2019-8-04T16:30:59Z
2019-08-04T14:33:43Z,42.805,6.029,13.2979,4.59978,2469.737,2019-8-04T16:34:03Z
2019-08-04T14:36:46Z,42.805,6.029,13.2983,4.59990,2469.76,2019-8-04T16:37:06Z
2019-08-04T14:39:49Z,42.805,6.029,13.2991,4.59984,2469.75,2019-8-04T16:40:09Z
2019-08-04T14:42:52Z,42.805,6.029,13.2991,4.59983,2469.76,2019-8-04T16:43:12Z
2019-08-04T14:45:56Z,42.805,6.029,13.3000,4.60006,2469.737,2019-8-04T16:46:16Z
2019-08-04T14:48:59Z,42.805,6.029,13.2998,4.59978,2469.76,2019-8-04T16:49:19Z
2019-08-04T14:52:02Z,42.805,6.029,13.2993,4.60001,2469.75,2019-8-04T16:52:22Z
2019-08-04T14:55:05Z,42.805,6.029,13.2991,4.59999,2469.737,2019-8-04T16:55:25Z
2019-08-04T14:58:08Z,42.805,6.029,13.2980,4.59991,2469.737,2019-8-04T16:58:28Z
2019-08-04T15:01:12Z,42.805,6.029,13.2981,4.59997,2469.713,2019-8-04T17:01:32Z
2019-08-04T15:04:15Z,42.805,6.029,13.2971,4.59984,2469.737,2019-8-04T17:04:35Z
2019-08-04T15:07:18Z,42.805,6.029,13.2980,4.60032,2469.737,2019-8-04T17:07:38Z
2019-08-04T15:10:21Z,42.805,6.029,13.3003,4.60031,2469.727,2019-8-04T17:10:41Z
2019-08-04T15:13:25Z,42.805,6.029,13.2998,4.60024,2469.75,2019-8-04T17:13:44Z
2019-08-04T15:16:28Z,42.805,6.029,13.2988,4.60025,2469.737,2019-8-04T17:16:48Z
2019-08-04T15:19:31Z,42.805,6.029,13.2983,4.60001,2469.713,2019-8-04T17:19:51Z
2019-08-04T15:22:34Z,42.805,6.029,13.2968,4.60020,2469.737,2019-8-04T17:22:54Z
2019-08-04T15:25:38Z,42.805,6.029,13.2986,4.60017,2469.727,2019-8-04T17:25:57Z
2019-08-04T15:28:41Z,42.805,6.029,13.2987,4.59971,2469.773,2019-8-04T17:29:01Z
2019-08-04T15:31:44Z,42.805,6.029,13.3004,4.59993,2469.727,2019-8-04T17:32:04Z
2019-08-04T15:34:47Z,42.805,6.029,13.2995,4.60005,2469.727,2019-8-04T17:35:07Z